315P/LONEOS (2016)

Japanese version
Home page
Updated on May 22, 2017

---------------------------------------------------------------------

* Profile

Designation 315P/2013 V6
Recovery Date November 6, 2013
Magnitude 21.6 mag
Recoverer M. Micheli, Y. Fernandez, C. Lisse, H. Weaver (New Mexico)

* Pictures

* Orbital Elements

Epoch 2016 Nov. 28.0 TT = JDT 2457720.5
T 2016 Dec. 6.82744 TT                                  MPCW
q   2.4204208            (2000.0)            P               Q
n   0.08780382     Peri.   67.18909     -0.68638417     -0.66768528
a   5.0133393      Node    69.55181     +0.50163400     -0.72163029
e   0.5172039      Incl.   17.91507     +0.52653595     -0.18288271
P  11.23
From 1934 observations 2004 Nov. 3-2017 May 2, mean residual 0".5.

* Finding Charts

* Magnitudes Graph

        m1 = 11.0 + 5 log d + 10.0 log r  [    ,-300]  (             - 2016 Feb. 10)
        m1 =  3.2 + 5 log d + 25.0 log r  [-300,    ]  (2016 Feb. 10 -             )

---------------------------------------------------------------------

The orbital elements are published on M.P.E.C. 2017-J52.
The charts are made with StellaNavigator Ver.8 (AstroArts).
The magnitudes graphs are made with Comet for Windows.

---------------------------------------------------------------------

Copyright(C) Seiichi Yoshida (comet@aerith.net). All rights reserved.